This is the latest recevied weather packets stored in our database for station/object DB0SVX. If no packets are shown the sender has not sent any weather packets the latest 10 day(s).
| Time | Temp. | Humidity | Pressure | Rain* | Wind** | Luminosity | Snow |
|---|---|---|---|---|---|---|---|
| 1777651820 | 29.44° C | 19% | 1021.5 hPa | 0 mm | - | - | - |
| 1777650920 | 30° C | 17% | 1021.5 hPa | 0 mm | - | - | - |
| 1777650020 | 29.44° C | 17% | 1021.5 hPa | 0 mm | - | - | - |
| 1777649120 | 29.44° C | 17% | 1021.7 hPa | 0 mm | - | - | - |
| 1777648221 | 28.89° C | 18% | 1021.7 hPa | 0 mm | - | - | - |
| 1777647320 | 28.33° C | 19% | 1021.7 hPa | 0 mm | - | - | - |
| 1777646420 | 27.78° C | 19% | 1021.7 hPa | 0 mm | - | - | - |
| 1777645520 | 27.78° C | 19% | 1021.7 hPa | 0 mm | - | - | - |
| 1777644620 | 27.78° C | 19% | 1021.7 hPa | 0 mm | - | - | - |
| 1777643720 | 26.67° C | 20% | 1022 hPa | 0 mm | - | - | - |
| 1777642820 | 26.11° C | 20% | 1022.2 hPa | 0 mm | - | - | - |
| 1777641920 | 26.11° C | 20% | 1022.2 hPa | 0 mm | - | - | - |
| 1777641020 | 25° C | 20% | 1022.4 hPa | 0 mm | - | - | - |
| 1777640120 | 25.56° C | 20% | 1022.5 hPa | 0 mm | - | - | - |
| 1777639220 | 25° C | 20% | 1022.7 hPa | 0 mm | - | - | - |
| 1777638320 | 25° C | 20% | 1022.7 hPa | 0 mm | - | - | - |
| 1777637420 | 25.56° C | 19% | 1022.7 hPa | 0 mm | - | - | - |
| 1777636520 | 26.11° C | 18% | 1022.9 hPa | 0 mm | - | - | - |
| 1777635621 | 26.67° C | 19% | 1023 hPa | 0 mm | - | - | - |
| 1777634720 | 26.11° C | 18% | 1023.4 hPa | 0 mm | - | - | - |
| 1777633820 | 26.11° C | 18% | 1023.4 hPa | 0 mm | - | - | - |
| 1777632920 | 25.56° C | 18% | 1023.5 hPa | 0 mm | - | - | - |
| 1777632020 | 24.44° C | 20% | 1023.5 hPa | 0 mm | - | - | - |
| 1777631120 | 24.44° C | 21% | 1023.7 hPa | 0 mm | - | - | - |
| 1777630220 | 22.78° C | 22% | 1023.7 hPa | 0 mm | - | - | - |
* Rain latest hour (hover to see other rain measurements)
** Current wind speed in m/s (hover to see current wind gust speed)